Hurghada, Egypt

10:54 AM EET on April 26, 2017 (GMT +0200)
Hurghada

Weather History for HEGN - September, 2013

Change the Weather History Date:

Wednesday, September 18, 2013

  Actual Average Record
Temperature  
Mean Temperature 93 °F -  
Max Temperature 105 °F 87 °F 105 °F (2013)
Min Temperature 81 °F 73 °F 71 °F (2004)
Cooling Degree Days 28    
Growing Degree Days 43 (Base 50)    
Moisture  
Dew Point 55 °F    
Average Humidity 27    
Maximum Humidity 49    
Minimum Humidity 15    
Precipitation  
Precipitation 0.00 in - - ()
Sea Level Pressure  
Sea Level Pressure 29.75 in    
Wind  
Wind Speed 15 mph ()    
Max Wind Speed 22 mph    
Max Gust Speed -    
Visibility 6.0 miles    
Events      
Averages and records for this station are not official NWS values.
T = Trace of Precipitation, MM = Missing Value Source: Averaged Metar Reports

Daily Weather History Graph

Daily Weather History Graph

Search for Another Location

Airport or City:

Trip Planner

Search our weather history database for the weather conditions in past years. The results will help you decide how hot, cold, wet, or windy it might be!

Date:

Astronomy

Sep. 18, 2013 Rise Set
Actual Time 5:31 AM EET 5:46 PM EET
Civil Twilight 5:08 AM EET 6:09 PM EET
Nautical Twilight 4:41 AM EET 6:36 PM EET
Astronomical Twilight 4:13 AM EET 7:03 PM EET
Moon 4:56 PM EET (9/18) 4:14 AM EET (9/18)
Length of Visible Light 13h 00m
Length of Day
12h 14m
Waxing Gibbous, 99% of the Moon is Illuminated
Sep 18
Waxing Gibbous
Sep 19
Full
Sep 27
Last Quarter
Oct 5
New
Oct 12
First Quarter

Hourly Weather History & Observations

Time (EET) Temp. Heat Index Dew Point Humidity Pressure Visibility Wind Dir Wind Speed Gust Speed Precip Events Conditions
12:00 AM 84.2 °F - 50.0 °F 30% 29.74 in - WNW 18.4 mph - N/A   Clear
1:00 AM 84.2 °F - 51.8 °F 33% 29.77 in - WNW 15.0 mph - N/A   Clear
2:00 AM 85 °F - 52 °F 22% 29.76 in 6 mi WNW 16.1 mph - -  
2:00 AM 84.2 °F - 51.8 °F 33% 29.74 in - WNW 16.1 mph - N/A   Clear
3:00 AM 84.2 °F - 51.8 °F 33% 29.74 in - WNW 13.8 mph - N/A   Clear
4:00 AM 84.2 °F - 51.8 °F 33% 29.74 in - NW 18.4 mph - N/A   Clear
5:00 AM 86.0 °F - 50.0 °F 29% 29.77 in - WNW 21.9 mph - N/A   Clear
6:00 AM 86.0 °F - 51.8 °F 31% 29.77 in - WNW 19.6 mph - N/A   Clear
7:00 AM 89.6 °F - 51.8 °F 27% 29.77 in - WNW 19.6 mph - N/A   Clear
8:00 AM 94 °F - 54 °F 16% 29.81 in 6 mi WNW 20.7 mph - -  
8:00 AM 93.2 °F 90.8 °F 53.6 °F 26% 29.80 in - WNW 20.7 mph - N/A   Clear
9:00 AM 96.8 °F 95.1 °F 55.4 °F 25% 29.80 in - WNW 20.7 mph - N/A   Clear
10:00 AM 98.6 °F 97.2 °F 55.4 °F 24% 29.80 in - NNW 13.8 mph - N/A   Clear
11:00 AM 102.2 °F 100.4 °F 53.6 °F 20% 29.77 in - North 12.7 mph - N/A   Clear
12:00 PM 104.0 °F 102.9 °F 55.4 °F 20% 29.74 in - NNE 10.4 mph - N/A   Clear
1:00 PM 104.0 °F 103.4 °F 57.2 °F 21% 29.74 in - North 13.8 mph - N/A   Clear
2:00 PM 103 °F - 58 °F 15% 29.73 in 6 mi North 13.8 mph - -  
2:00 PM 104.0 °F 104.6 °F 59.0 °F 23% 29.71 in - North 13.8 mph - N/A   Clear
3:00 PM 102.2 °F 104.2 °F 62.6 °F 27% 29.71 in - North 12.7 mph - N/A   Clear
4:00 PM 100.4 °F 102.4 °F 62.6 °F 29% 29.68 in - North 17.3 mph - N/A   Clear
5:00 PM 98.6 °F 99.4 °F 60.8 °F 29% 29.68 in - North 20.7 mph - N/A   Clear
6:00 PM 93.2 °F 93.3 °F 60.8 °F 34% 29.68 in - NNE 18.4 mph - N/A   Clear
7:00 PM 89.6 °F 93.4 °F 68.0 °F 49% 29.68 in - North 11.5 mph - N/A   Clear
8:00 PM 94 °F - 55 °F 18% 29.76 in 6 mi NNW 17.3 mph - -  
8:00 PM 93.2 °F 91.3 °F 55.4 °F 28% 29.74 in - NNW 17.3 mph - N/A   Clear
9:00 PM 93.2 °F 90.8 °F 53.6 °F 26% 29.77 in - NW 9.2 mph - N/A   Clear
10:00 PM 89.6 °F - 51.8 °F 27% 29.77 in - WNW 15.0 mph - N/A   Clear
11:00 PM 87.8 °F - 51.8 °F 29% 29.77 in - WNW 11.5 mph - N/A   Clear